QPF
0.00 0.00 0.00 0.00 0.00 0.02 0.11 0.07 0.08 0.05 0.00 0.01 0.05 0.04 0.04 0.05 0.05 0.07 0.08 0.09 0.08 0.10 0.14 0.15 0.17 0.19 0.06 0.00 0.02 0.05 0.04 0.08 0.01 0.01 0.04 0.10 0.28 0.34 0.52 0.36 0.28 0.23 0.17
0.00 0.00 0.00 0.00 0.00 0.04 0.03 0.05 0.06 0.03 0.00 0.00 0.00 0.01 0.03 0.05 0.10 0.10 0.08 0.08 0.04 0.04 0.05 0.02 0.01 0.04 0.02 0.05 0.13 0.05 0.01 0.04 0.00 0.02 0.13 0.17 0.36 0.32 0.31 0.28 0.23 0.20 0.08
0.00 0.00 0.00 0.01 0.07 0.02 0.02 0.03 0.04 0.06 0.01 0.00 0.00 0.02 0.04 0.02 0.05 0.07 0.06 0.03 0.00 0.00 0.00 0.00 0.00 0.00 0.06 0.15 0.14 0.03 0.02 0.01 0.00 0.03 0.19 0.16 0.31 0.26 0.26 0.19 0.20 0.15 0.07
0.00 0.00 0.00 0.04 0.06 0.02 0.05 0.04 0.03 0.03 0.02 0.00 0.00 0.00 0.01 0.00 0.00 0.00 0.01 0.01 0.00 0.00 0.01 0.03 0.10 0.16 0.10 0.10 0.09 0.06 0.01 0.01 0.03 0.05 0.07 0.13 0.17 0.18 0.13 0.13 0.21 0.17 0.07
0.00 0.00 0.00 0.02 0.03 0.02 0.04 0.05 0.03 0.03 0.01 0.00 0.00 0.00 0.00 0.00 0.00 0.00 0.00 0.00 0.00 0.00 0.02 0.09 0.18 0.17 0.07 0.09 0.09 0.04 0.04 0.03 0.04 0.04 0.04 0.06 0.10 0.10 0.09 0.12 0.16 0.10 0.02
0.00 0.00 0.00 0.00 0.01 0.02 0.03 0.02 0.01 0.02 0.04 0.01 0.00 0.00 0.00 0.00 0.00 0.00 0.00 0.00 0.00 0.04 0.03 0.03 0.03 0.03 0.00 0.00 0.01 0.02 0.01 0.01 0.01 0.01 0.01 0.03 0.07 0.06 0.06 0.12 0.10 0.03 0.00
0.00 0.00 0.00 0.00 0.00 0.03 0.05 0.03 0.01 0.01 0.04 0.05 0.01 0.00 0.00 0.00 0.00 0.00 0.00 0.00 0.01 0.04 0.01 0.01 0.01 0.00 0.00 0.00 0.00 0.00 0.02 0.05 0.03 0.01 0.00 0.02 0.04 0.07 0.10 0.10 0.04 0.00 0.00
0.00 0.00 0.00 0.00 0.00 0.01 0.08 0.08 0.01 0.01 0.02 0.00 0.00 0.01 0.01 0.00 0.00 0.00 0.00 0.02 0.02 0.04 0.02 0.03 0.01 0.00 0.00 0.00 0.00 0.01 0.06 0.04 0.05 0.05 0.05 0.04 0.07 0.09 0.06 0.02 0.00 0.01 0.00
0.00 0.00 0.00 0.00 0.00 0.00 0.01 0.07 0.10 0.03 0.05 0.09 0.06 0.01 0.01 0.00 0.00 0.00 0.01 0.01 0.02 0.05 0.05 0.03 0.00 0.00 0.00 0.00 0.00 0.01 0.03 0.05 0.14 0.15 0.13 0.06 0.09 0.09 0.02 0.00 0.00 0.00 0.00
0.00 0.00 0.00 0.00 0.00 0.00 0.00 0.04 0.10 0.07 0.07 0.10 0.05 0.01 0.03 0.00 0.00 0.00 0.00 0.00 0.01 0.04 0.04 0.00 0.00 0.00 0.00 0.00 0.00 0.00 0.01 0.02 0.07 0.08 0.05 0.04 0.03 0.02 0.01 0.00 0.00 0.00 0.00
0.00 0.00 0.00 0.00 0.00 0.00 0.00 0.02 0.05 0.05 0.03 0.06 0.03 0.01 0.00 0.00 0.00 0.00 0.00 0.02 0.02 0.05 0.02 0.01 0.00 0.00 0.00 0.00 0.02 0.05 0.02 0.02 0.02 0.01 0.02 0.04 0.02 0.00 0.00 0.00 0.00 0.02 0.00
0.00 0.00 0.00 0.00 0.00 0.00 0.00 0.01 0.01 0.01 0.01 0.05 0.05 0.02 0.01 0.00 0.00 0.00 0.00 0.01 0.01 0.01 0.01 0.01 0.00 0.00 0.00 0.00 0.00 0.00 0.00 0.00 0.00 0.01 0.01 0.01 0.00 0.00 0.00 0.00 0.00 0.01 0.00
0.00 0.00 0.00 0.00 0.00 0.00 0.00 0.00 0.01 0.01 0.00 0.04 0.07 0.03 0.02 0.01 0.00 0.00 0.01 0.00 0.00 0.01 0.03 0.01 0.00 0.00 0.00 0.00 0.00 0.00 0.00 0.00 0.00 0.00 0.00 0.00 0.00 0.00 0.00 0.00 0.00 0.00 0.00
0.00 0.00 0.00 0.00 0.00 0.00 0.00 0.00 0.00 0.00 0.00 0.00 0.01 0.01 0.01 0.00 0.00 0.00 0.00 0.00 0.00 0.00 0.00 0.00 0.00 0.00 0.00 0.00 0.00 0.00 0.00 0.00 0.00 0.00 0.00 0.00 0.00 0.00 0.00 0.00 0.00 0.00 0.00
0.00 0.00 0.00 0.00 0.00 0.00 0.00 0.00 0.00 0.00 0.00 0.00 0.00 0.00 0.00 0.00 0.00 0.00 0.00 0.00 0.00 0.00 0.00 0.00 0.00 0.00 0.00 0.00 0.00 0.00 0.00 0.00 0.00 0.00 0.00 0.00 0.00 0.00 0.00 0.00 0.00 0.00 0.00
0.00 0.00 0.00 0.00 0.00 0.00 0.00 0.00 0.00 0.00 0.00 0.00 0.00 0.00 0.00 0.00 0.00 0.00 0.00 0.00 0.00 0.00 0.00 0.00 0.00 0.00 0.00 0.00 0.00 0.00 0.00 0.00 0.00 0.00 0.00 0.00 0.00 0.00 0.00 0.00 0.00 0.00 0.00
0.00 0.00 0.00 0.00 0.00 0.00 0.00 0.00 0.00 0.00 0.00 0.00 0.00 0.00 0.00 0.00 0.00 0.00 0.00 0.00 0.00 0.00 0.00 0.00 0.00 0.00 0.00 0.00 0.00 0.00 0.00 0.00 0.00 0.00 0.00 0.00 0.00 0.00 0.00 0.00 0.00 0.00 0.00
0.00 0.00 0.00 0.00 0.00 0.00 0.00 0.00 0.00 0.00 0.00 0.00 0.00 0.00 0.00 0.00 0.00 0.00 0.00 0.00 0.00 0.00 0.00 0.00 0.00 0.00 0.00 0.00 0.00 0.00 0.00 0.00 0.00 0.00 0.00 0.00 0.00 0.00 0.00 0.00 0.00 0.00 0.00
0.00 0.00 0.00 0.00 0.00 0.00 0.00 0.00 0.00 0.00 0.00 0.00 0.00 0.00 0.00 0.00 0.00 0.00 0.00 0.00 0.00 0.00 0.00 0.00 0.00 0.00 0.00 0.00 0.00 0.00 0.00 0.00 0.00 0.00 0.00 0.00 0.00 0.00 0.00 0.00 0.00 0.00 0.00
0.00 0.00 0.00 0.00 0.00 0.00 0.00 0.00 0.00 0.00 0.00 0.00 0.00 0.00 0.00 0.00 0.00 0.00 0.00 0.00 0.00 0.00 0.00 0.00 0.00 0.00 0.00 0.00 0.00 0.00 0.00 0.00 0.00 0.00 0.00 0.00 0.00 0.00 0.00 0.00 0.00 0.00 0.00
0.00 0.00 0.00 0.00 0.00 0.00 0.00 0.00 0.00 0.00 0.00 0.00 0.00 0.00 0.00 0.00 0.00 0.00 0.00 0.00 0.00 0.00 0.00 0.00 0.00 0.00 0.00 0.00 0.00 0.00 0.00 0.00 0.00 0.00 0.00 0.00 0.00 0.00 0.00 0.00 0.00 0.00 0.00
0.00 0.00 0.00 0.00 0.00 0.00 0.00 0.00 0.00 0.00 0.00 0.00 0.00 0.00 0.00 0.00 0.00 0.00 0.00 0.00 0.00 0.00 0.00 0.00 0.00 0.00 0.00 0.00 0.00 0.00 0.00 0.00 0.00 0.00 0.00 0.00 0.00 0.00 0.00 0.00 0.00 0.00 0.00
0.00 0.00 0.00 0.00 0.00 0.00 0.00 0.00 0.00 0.00 0.00 0.00 0.00 0.00 0.00 0.00 0.00 0.00 0.00 0.00 0.00 0.00 0.00 0.00 0.00 0.00 0.00 0.00 0.00 0.00 0.00 0.00 0.00 0.00 0.00 0.00 0.00 0.00 0.00 0.00 0.00 0.00 0.00
0.00 0.00 0.00 0.00 0.00 0.00 0.00 0.00 0.00 0.00 0.00 0.00 0.00 0.00 0.00 0.00 0.00 0.00 0.00 0.00 0.00 0.00 0.00 0.00 0.00 0.00 0.00 0.00 0.00 0.00 0.00 0.00 0.00 0.00 0.00 0.00 0.00 0.00 0.00 0.00 0.00 0.00 0.00
0.00 0.00 0.00 0.00 0.00 0.00 0.00 0.00 0.00 0.00 0.00 0.00 0.00 0.00 0.00 0.00 0.00 0.00 0.00 0.00 0.00 0.00 0.00 0.00 0.00 0.00 0.00 0.00 0.00 0.00 0.00 0.00 0.00 0.00 0.00 0.00 0.00 0.00 0.00 0.00 0.00 0.00 0.00
0.00 0.00 0.00 0.00 0.00 0.00 0.00 0.00 0.00 0.00 0.00 0.00 0.00 0.00 0.00 0.00 0.00 0.00 0.00 0.00 0.00 0.00 0.00 0.00 0.00 0.00 0.00 0.00 0.00 0.00 0.00 0.00 0.00 0.00 0.00 0.00 0.00 0.00 0.00 0.00 0.00 0.00 0.00
MSLP
1002.56 1002.96 1003.32 1003.76 1003.86 1004.07 1004.72 1004.88 1005.19 1005.07 1005.14 1005.46 1005.76 1005.83 1005.97 1006.21 1006.56 1006.96 1006.97 1007.04 1007.43 1007.61 1007.76 1007.63 1007.52 1007.60 1007.97 1008.18 1008.53 1008.86 1009.14 1009.52 1010.32 1011.67 1012.46 1013.29 1013.83 1014.58 1015.93 1016.62 1017.41 1018.11 1018.88
1002.37 1002.81 1003.18 1003.81 1003.70 1004.44 1004.68 1005.01 1005.23 1005.22 1004.97 1004.99 1005.43 1005.39 1005.62 1006.20 1006.70 1006.75 1006.82 1007.00 1007.25 1007.49 1007.83 1007.75 1008.07 1008.10 1008.43 1008.67 1008.99 1009.25 1009.56 1009.71 1010.53 1011.64 1012.66 1013.64 1014.24 1015.07 1016.21 1017.23 1018.08 1018.74 1019.42
1002.15 1002.70 1003.22 1003.78 1004.25 1004.56 1004.80 1004.98 1005.18 1005.37 1004.88 1005.00 1005.36 1005.67 1005.77 1006.14 1006.65 1006.90 1006.94 1007.11 1007.47 1007.95 1008.17 1008.18 1008.53 1008.49 1008.88 1009.15 1009.66 1010.00 1010.20 1010.68 1011.26 1011.90 1012.92 1013.76 1014.61 1015.68 1016.83 1017.92 1018.62 1019.36 1020.18
1001.97 1002.47 1003.09 1004.01 1004.29 1004.48 1004.84 1005.07 1005.36 1005.50 1005.36 1005.18 1005.47 1005.76 1006.19 1006.53 1006.83 1007.06 1007.38 1007.83 1008.06 1008.07 1008.02 1008.26 1008.63 1008.85 1009.18 1009.53 1010.16 1010.61 1011.15 1011.49 1011.92 1012.45 1013.33 1014.43 1015.36 1016.64 1017.37 1018.14 1019.25 1019.97 1020.69
1001.83 1002.42 1003.06 1004.03 1004.05 1004.59 1004.75 1005.07 1005.42 1005.63 1005.74 1005.56 1006.16 1006.43 1007.18 1007.41 1007.69 1007.74 1008.00 1008.07 1007.88 1007.94 1008.06 1008.47 1009.11 1009.45 1009.80 1009.91 1010.42 1011.16 1011.62 1012.18 1012.70 1013.31 1014.19 1015.11 1016.14 1017.01 1017.91 1018.75 1019.35 1020.11 1020.94
1001.79 1002.30 1003.00 1003.75 1004.13 1004.57 1004.91 1005.01 1005.70 1005.70 1006.10 1006.65 1007.16 1007.48 1007.59 1007.13 1008.33 1008.51 1008.46 1008.11 1008.11 1008.20 1008.48 1008.91 1009.71 1010.22 1010.47 1010.49 1010.90 1011.47 1011.81 1012.31 1013.08 1013.77 1014.68 1015.54 1016.62 1017.46 1018.26 1018.84 1019.38 1019.78 1020.09
1001.73 1002.24 1002.87 1003.81 1004.28 1004.80 1005.04 1005.21 1005.91 1006.18 1006.58 1006.91 1007.25 1007.74 1007.63 1008.51 1009.03 1009.03 1008.96 1008.76 1008.81 1008.74 1009.07 1009.49 1009.94 1010.54 1010.73 1011.21 1011.57 1012.09 1012.66 1013.17 1013.44 1014.00 1014.73 1015.90 1016.78 1017.68 1018.26 1019.10 1019.32 1019.15 1019.35
1001.48 1002.06 1002.54 1003.04 1004.09 1004.62 1005.23 1005.53 1006.17 1006.55 1006.90 1007.30 1007.77 1007.97 1007.98 1009.16 1009.45 1009.52 1009.44 1009.19 1009.13 1009.28 1009.58 1010.02 1010.55 1010.95 1011.24 1011.52 1012.16 1012.71 1013.32 1013.92 1014.39 1014.84 1015.44 1016.19 1017.01 1017.81 1018.21 1018.62 1018.83 1019.02 1019.61
1001.10 1001.82 1002.28 1002.68 1003.75 1004.48 1004.97 1005.66 1006.09 1006.31 1006.74 1007.38 1007.96 1008.58 1008.84 1009.58 1009.88 1009.98 1010.00 1009.19 1009.43 1009.92 1010.30 1010.82 1011.27 1011.70 1012.03 1012.13 1012.52 1013.12 1013.88 1014.54 1015.15 1015.56 1016.25 1016.91 1017.59 1017.98 1018.16 1018.63 1018.79 1019.03 1019.62
1000.76 1001.50 1002.09 1002.49 1003.33 1003.91 1004.75 1005.64 1006.11 1006.43 1006.87 1007.30 1008.01 1008.82 1009.37 1009.47 1010.23 1010.32 1010.18 1009.91 1009.99 1010.59 1011.33 1011.83 1012.02 1012.48 1012.69 1012.82 1013.03 1013.50 1014.13 1014.87 1015.56 1016.40 1017.22 1017.73 1017.82 1018.37 1018.51 1017.95 1017.84 1017.87 1018.53
1000.54 1001.28 1002.01 1002.63 1003.43 1004.11 1004.97 1005.57 1006.10 1006.44 1006.95 1007.49 1008.17 1009.09 1009.68 1009.58 1010.41 1010.56 1010.40 1010.03 1010.32 1010.89 1011.69 1012.30 1012.85 1012.96 1013.10 1013.24 1013.30 1013.52 1014.11 1014.87 1015.55 1016.22 1016.81 1017.46 1017.78 1018.05 1017.90 1017.87 1017.54 1017.49 1017.85
1000.36 1001.09 1001.93 1002.84 1003.35 1004.31 1005.05 1005.47 1005.95 1006.53 1007.11 1007.74 1008.41 1009.26 1009.83 1010.25 1010.70 1010.88 1010.88 1010.73 1010.80 1010.90 1011.77 1012.22 1012.94 1013.18 1013.36 1013.45 1013.50 1013.73 1014.09 1014.76 1015.24 1015.82 1016.44 1016.81 1017.04 1017.20 1017.28 1017.29 1017.57 1018.02 1018.09
1000.17 1000.97 1001.95 1002.91 1003.36 1004.38 1005.00 1005.50 1006.14 1006.34 1006.21 1007.40 1008.04 1008.57 1009.27 1009.94 1010.79 1011.09 1011.34 1011.39 1011.33 1011.37 1011.79 1012.36 1013.05 1013.33 1013.50 1013.74 1013.87 1014.02 1014.21 1014.14 1014.55 1015.13 1015.51 1015.88 1016.28 1016.52 1016.99 1017.68 1018.33 1018.50 1018.47
1000.02 1000.92 1001.88 1002.76 1003.38 1004.29 1004.89 1005.18 1005.08 1005.32 1005.56 1005.84 1006.96 1007.61 1008.55 1009.17 1009.94 1010.55 1011.50 1011.67 1011.83 1012.23 1012.27 1012.77 1013.06 1013.22 1013.21 1013.61 1014.24 1014.32 1014.02 1013.69 1013.85 1014.10 1014.48 1014.86 1015.52 1016.71 1017.21 1017.69 1018.02 1018.31 1018.50
999.94 1000.76 1001.66 1002.44 1003.30 1004.04 1004.50 1005.26 1004.98 1005.05 1005.68 1005.91 1006.32 1007.12 1007.98 1008.49 1009.27 1009.74 1010.24 1010.66 1011.05 1011.20 1011.81 1012.64 1012.82 1012.85 1013.17 1013.54 1013.76 1013.82 1013.25 1013.56 1013.68 1014.26 1014.76 1015.49 1016.16 1016.70 1016.62 1017.07 1017.28 1017.70 1017.94
999.67 1000.44 1001.17 1001.74 1002.94 1003.36 1004.05 1005.09 1006.01 1006.22 1006.28 1006.82 1006.92 1006.79 1007.36 1007.70 1009.00 1010.03 1010.50 1010.66 1010.90 1011.24 1011.43 1011.46 1011.49 1011.78 1012.20 1012.55 1012.82 1012.87 1012.99 1013.44 1013.38 1013.54 1013.99 1014.58 1015.02 1015.44 1015.68 1016.19 1016.44 1016.85 1017.17
999.17 999.86 1000.52 1001.13 1002.03 1002.43 1003.14 1003.89 1005.22 1006.80 1006.86 1007.10 1007.74 1007.68 1007.80 1008.71 1009.16 1009.95 1010.58 1010.85 1011.06 1011.21 1010.76 1010.78 1010.47 1010.73 1010.98 1011.28 1011.57 1011.92 1012.09 1012.43 1012.77 1012.81 1013.09 1013.69 1014.05 1014.41 1014.84 1015.36 1015.78 1016.10 1016.37
999.04 999.51 999.94 1000.60 1000.91 1001.63 1002.25 1002.87 1003.63 1004.91 1006.10 1006.97 1007.78 1008.21 1008.65 1008.94 1009.50 1009.96 1010.53 1010.94 1011.43 1011.42 1010.43 1009.61 1009.50 1009.80 1010.13 1010.32 1010.61 1010.87 1011.18 1011.55 1012.11 1012.36 1012.58 1012.92 1013.29 1013.69 1014.18 1014.56 1014.95 1015.26 1015.55
998.39 998.85 999.43 999.97 1000.12 1000.82 1001.33 1001.97 1002.49 1003.20 1004.39 1005.44 1006.66 1008.34 1009.12 1009.75 1010.13 1010.38 1010.50 1010.10 1009.97 1010.02 1009.91 1009.18 1008.80 1009.01 1009.39 1009.69 1009.88 1009.92 1010.04 1010.34 1010.84 1011.53 1011.76 1012.06 1012.41 1012.83 1013.13 1013.64 1014.03 1014.51 1014.93
997.63 998.01 998.86 998.96 999.55 1000.16 1000.54 1001.10 1001.53 1001.97 1002.73 1003.67 1004.81 1006.56 1008.12 1009.51 1009.98 1010.12 1010.11 1009.54 1008.81 1008.70 1008.76 1008.74 1008.48 1008.46 1008.69 1008.86 1008.96 1009.28 1009.57 1010.01 1010.33 1010.60 1011.04 1011.42 1011.73 1012.14 1012.51 1012.71 1013.15 1013.38 1014.41
996.80 997.63 998.19 998.34 998.77 999.27 999.82 1000.16 1000.69 1001.15 1001.63 1002.28 1003.13 1004.43 1005.86 1007.62 1007.76 1008.06 1008.31 1008.38 1008.24 1007.73 1007.49 1007.54 1007.73 1007.90 1008.05 1008.18 1008.49 1008.56 1008.74 1009.03 1009.50 1009.81 1010.09 1010.72 1011.01 1011.37 1011.60 1011.77 1012.05 1012.96 1013.33
995.53 996.26 997.50 997.74 997.77 998.21 998.88 999.41 999.93 1000.30 1000.73 1001.27 1002.04 1003.04 1004.89 1005.86 1005.95 1006.02 1006.22 1006.43 1006.70 1006.84 1006.78 1006.59 1006.58 1006.63 1006.84 1007.08 1007.35 1007.67 1007.84 1007.99 1008.26 1008.74 1009.28 1009.67 1010.03 1010.25 1010.69 1010.98 1011.66 1012.02 1012.99
994.60 995.17 996.15 997.02 996.91 997.41 998.16 998.53 998.96 999.42 999.80 1000.25 1000.86 1001.63 1003.47 1003.68 1003.88 1004.08 1004.17 1004.34 1004.78 1005.38 1005.81 1005.95 1005.84 1005.70 1005.77 1005.92 1006.26 1006.66 1006.90 1007.04 1007.28 1007.80 1008.38 1008.88 1009.04 1009.28 1009.74 1010.15 1010.75 1011.65 1012.58
994.06 994.00 994.59 995.85 996.35 996.39 997.02 997.73 998.00 998.60 998.87 999.30 999.82 1000.25 1001.10 1001.94 1002.39 1002.67 1002.72 1003.01 1003.33 1003.71 1004.09 1004.54 1004.89 1004.98 1004.97 1005.10 1005.22 1005.49 1005.83 1006.32 1006.73 1007.05 1007.45 1007.83 1008.38 1008.85 1009.20 1009.77 1010.61 1011.45 1012.43
993.46 993.40 993.59 994.27 995.20 995.54 995.75 996.55 997.24 997.43 998.04 998.41 998.75 999.28 999.77 1000.23 1000.88 1001.43 1001.85 1002.18 1002.18 1002.46 1002.73 1003.01 1003.21 1003.44 1003.82 1004.11 1004.26 1004.49 1004.82 1005.52 1005.93 1006.26 1006.44 1006.90 1007.47 1008.16 1008.51 1009.24 1010.22 1011.04 1012.52
993.18 992.99 992.68 993.13 993.98 994.42 994.79 995.23 995.88 996.62 996.83 997.41 997.97 998.30 998.67 999.00 999.31 999.62 1000.32 1000.91 1001.26 1001.31 1001.43 1001.75 1002.04 1002.45 1002.73 1003.01 1003.29 1003.62 1004.28 1004.98 1005.43 1006.17 1006.51 1006.71 1006.80 1007.30 1008.02 1008.52 1009.45 1011.03 1012.80
Thickness
5702 5695 5688 5681 5677 5673 5664 5660 5655 5655 5653 5649 5647 5645 5644 5642 5641 5637 5638 5637 5634 5634 5633 5635 5637 5638 5637 5639 5639 5639 5640 5640 5635 5629 5628 5625 5624 5622 5616 5614 5614 5615 5615
5701 5694 5687 5679 5678 5667 5663 5659 5657 5655 5656 5655 5651 5651 5650 5646 5642 5642 5640 5640 5639 5637 5634 5636 5634 5636 5634 5635 5635 5636 5637 5639 5635 5628 5624 5621 5621 5620 5616 5612 5610 5611 5611
5701 5692 5685 5677 5671 5666 5664 5661 5658 5655 5658 5657 5653 5651 5651 5648 5645 5644 5643 5642 5638 5634 5632 5633 5632 5634 5631 5631 5630 5630 5632 5631 5629 5626 5622 5621 5620 5616 5611 5608 5607 5606 5605
5699 5692 5684 5674 5671 5668 5664 5661 5656 5654 5654 5656 5654 5652 5649 5647 5647 5646 5643 5638 5636 5637 5638 5637 5635 5636 5634 5634 5631 5628 5626 5626 5627 5627 5623 5619 5616 5610 5610 5608 5602 5601 5600
5698 5690 5684 5674 5674 5668 5666 5661 5656 5653 5651 5653 5649 5648 5642 5641 5641 5642 5641 5641 5643 5643 5642 5639 5635 5635 5634 5635 5633 5629 5627 5625 5624 5623 5620 5616 5613 5610 5607 5605 5604 5601 5599
5697 5690 5685 5676 5673 5668 5664 5662 5654 5652 5648 5643 5640 5639 5640 5646 5635 5637 5640 5644 5645 5645 5643 5641 5635 5633 5631 5632 5632 5630 5632 5631 5627 5625 5620 5616 5612 5609 5607 5605 5605 5605 5605
5697 5692 5686 5676 5671 5666 5664 5661 5653 5649 5645 5640 5639 5637 5641 5636 5631 5635 5637 5641 5642 5644 5641 5639 5637 5635 5635 5632 5629 5627 5626 5626 5628 5627 5623 5617 5613 5609 5609 5604 5605 5612 5611
5699 5694 5691 5686 5675 5670 5663 5659 5652 5647 5642 5636 5634 5635 5638 5631 5629 5631 5635 5640 5641 5641 5641 5638 5636 5635 5635 5635 5631 5628 5626 5625 5623 5621 5620 5617 5613 5610 5610 5611 5612 5614 5610
5702 5697 5695 5692 5680 5673 5667 5659 5656 5653 5647 5638 5633 5629 5632 5629 5627 5627 5630 5642 5641 5637 5636 5635 5633 5631 5627 5629 5630 5626 5623 5621 5619 5619 5618 5615 5613 5612 5613 5613 5612 5611 5605
5707 5703 5700 5696 5687 5681 5673 5663 5658 5654 5648 5641 5633 5629 5628 5631 5625 5627 5631 5637 5637 5633 5630 5627 5624 5623 5622 5625 5627 5626 5622 5619 5618 5616 5612 5610 5612 5611 5613 5617 5620 5621 5618
5714 5709 5703 5697 5689 5683 5675 5669 5663 5658 5652 5644 5637 5632 5630 5635 5630 5628 5632 5639 5637 5633 5629 5626 5623 5620 5622 5624 5627 5629 5626 5623 5620 5618 5617 5614 5613 5613 5616 5618 5624 5626 5624
5717 5711 5704 5697 5693 5684 5677 5674 5669 5663 5655 5648 5640 5633 5631 5633 5630 5628 5631 5634 5634 5636 5630 5629 5624 5621 5623 5626 5631 5629 5628 5626 5624 5621 5619 5620 5622 5621 5623 5623 5623 5622 5623
5718 5712 5705 5698 5695 5686 5680 5676 5670 5670 5670 5658 5651 5646 5641 5639 5634 5629 5628 5629 5632 5636 5636 5631 5626 5627 5630 5630 5630 5630 5631 5637 5634 5631 5629 5629 5629 5630 5627 5622 5618 5617 5616
5718 5712 5707 5700 5696 5690 5686 5685 5686 5683 5680 5679 5668 5663 5656 5653 5648 5645 5637 5639 5637 5637 5635 5635 5636 5636 5636 5637 5632 5633 5639 5644 5643 5641 5640 5640 5636 5626 5624 5622 5619 5617 5614
5720 5714 5709 5705 5698 5694 5694 5691 5693 5692 5687 5687 5684 5675 5667 5664 5660 5658 5655 5653 5651 5651 5647 5641 5641 5642 5640 5639 5639 5640 5647 5645 5644 5640 5636 5631 5628 5625 5626 5623 5621 5616 5612
5721 5717 5713 5710 5702 5701 5698 5694 5680 5681 5681 5677 5677 5683 5681 5678 5667 5659 5657 5656 5654 5653 5654 5653 5653 5652 5649 5647 5645 5646 5646 5643 5646 5646 5644 5640 5636 5633 5631 5626 5625 5618 5615
5726 5723 5719 5715 5709 5708 5705 5701 5693 5683 5679 5678 5674 5677 5680 5673 5668 5663 5658 5656 5655 5653 5660 5659 5662 5660 5659 5658 5656 5654 5652 5653 5652 5651 5649 5644 5642 5640 5634 5629 5623 5618 5614
5728 5722 5725 5720 5719 5715 5712 5709 5707 5697 5689 5686 5677 5678 5672 5671 5668 5664 5660 5658 5658 5655 5665 5671 5671 5669 5667 5665 5664 5662 5661 5659 5655 5654 5652 5649 5645 5641 5635 5631 5626 5620 5615
5731 5730 5728 5725 5726 5721 5720 5716 5714 5709 5701 5696 5691 5676 5669 5663 5661 5659 5659 5670 5669 5668 5668 5674 5678 5676 5672 5670 5670 5672 5672 5670 5665 5659 5656 5653 5650 5645 5640 5634 5629 5617 5611
5736 5733 5730 5732 5728 5724 5723 5719 5717 5715 5711 5707 5702 5692 5680 5669 5669 5667 5665 5670 5677 5677 5676 5675 5678 5679 5677 5677 5678 5675 5672 5668 5665 5663 5659 5655 5651 5646 5638 5636 5631 5628 5616
5738 5733 5729 5733 5731 5728 5726 5723 5720 5718 5715 5713 5712 5708 5694 5684 5683 5679 5676 5674 5676 5682 5684 5684 5683 5682 5682 5681 5678 5677 5675 5672 5668 5665 5662 5655 5651 5645 5643 5638 5635 5624 5621
5745 5741 5731 5731 5734 5733 5728 5727 5724 5721 5719 5717 5716 5713 5693 5695 5693 5691 5688 5686 5686 5686 5688 5690 5690 5690 5689 5687 5685 5681 5678 5677 5675 5670 5663 5659 5653 5651 5643 5639 5630 5626 5615
5748 5744 5737 5732 5736 5730 5728 5729 5726 5724 5723 5721 5720 5717 5703 5704 5703 5700 5699 5699 5698 5693 5691 5691 5692 5693 5695 5694 5690 5685 5681 5679 5677 5673 5665 5659 5656 5651 5645 5639 5632 5621 5609
5746 5748 5744 5735 5733 5735 5731 5727 5728 5721 5724 5723 5722 5720 5716 5710 5706 5705 5705 5705 5703 5701 5700 5697 5695 5694 5694 5693 5693 5689 5686 5680 5675 5671 5667 5661 5654 5646 5641 5633 5624 5614 5606
5744 5745 5745 5742 5735 5736 5736 5731 5727 5728 5725 5725 5723 5721 5720 5718 5712 5707 5706 5705 5706 5705 5704 5703 5703 5701 5697 5694 5693 5691 5687 5682 5676 5670 5666 5661 5654 5643 5638 5629 5616 5610 5595
5740 5742 5747 5745 5740 5738 5737 5735 5732 5728 5728 5726 5724 5724 5722 5720 5720 5718 5713 5709 5706 5707 5707 5706 5705 5702 5699 5696 5693 5691 5684 5678 5671 5662 5654 5651 5650 5643 5634 5626 5614 5601 5582